SOYUZ-TMA 6M is no longer on orbit SOYUZ-TMA 6M is classified as:
1 38871U 12058A 12333.60875234 +.00013656 +00000-0 +23040-3 0 9993 2 38871 051.6499 024.7441 0015766 340.1845 155.9317 15.51837211005599